Le nostre stazioni meteo in Italia

Pubblicità
Il mio iltempo24.it
Bousson, Italia (16058): Temperatura & dewpoint: 03.04.2020 19:00:00 - 09.04.2020 19:00:00 (CEST)Bousson, Italia (16058): velocità del vento: 03.04.2020 19:00:00 - 09.04.2020 19:00:00 (CEST)Bousson, Italia (16058): direzione del vento: 03.04.2020 19:00:00 - 09.04.2020 19:00:00 (CEST)Bousson, Italia (16058): precipitazioni: 03.04.2020 19:00:00 - 09.04.2020 19:00:00 (CEST)
Data & Tempo tt [°C] td [°C] ff [km/h] ff [kn] dd rr [mm]
09.04.2020 19:00:00 - - - - - -
09.04.2020 18:00:00 15,1 -9,9 11 6 SSO -
09.04.2020 17:00:00 15,7 -10,1 15 8 OSO -
09.04.2020 16:00:00 16,1 -10,6 13 7 OSO -
09.04.2020 15:00:00 16,5 -10,3 9 5 SSE -
09.04.2020 14:00:00 15,6 -10,2 8 4 OSO 0,0
09.04.2020 13:00:00 14,5 -12,8 8 4 O -
09.04.2020 12:00:00 13,9 -11,6 4 2 NO -
09.04.2020 11:00:00 11,1 -11,2 4 2 OSO -
09.04.2020 10:00:00 5,4 -4,9 2 1 O -
09.04.2020 09:00:00 0,1 -2,5 0 0 N -
09.04.2020 08:00:00 -2,1 -4,0 2 1 E 0,0
09.04.2020 07:00:00 -2,1 -4,2 2 1 ENE -
09.04.2020 06:00:00 -1,6 -3,4 2 1 E -
09.04.2020 05:00:00 -1,3 -3,2 2 1 E -
09.04.2020 04:00:00 -0,8 -2,4 4 2 E -
09.04.2020 03:00:00 -0,4 -1,9 2 1 E -
09.04.2020 02:00:00 0,0 -1,8 4 2 E 0,0
09.04.2020 01:00:00 0,7 -1,6 2 1 E -
09.04.2020 00:00:00 1,4 -1,5 4 2 ENE -
08.04.2020 23:00:00 2,5 -1,2 4 2 E -
08.04.2020 22:00:00 3,8 -2,5 2 1 E -
08.04.2020 21:00:00 5,9 -4,4 2 1 NE -
08.04.2020 20:00:00 9,5 -6,5 4 2 SSO 0,0
08.04.2020 19:00:00 12,7 -7,0 8 4 N -
08.04.2020 18:00:00 14,0 -8,1 8 4 N -
08.04.2020 17:00:00 14,7 -7,5 13 7 O -
08.04.2020 16:00:00 14,8 -7,4 11 6 OSO -
08.04.2020 15:00:00 14,7 -8,1 11 6 SE -
08.04.2020 14:00:00 13,9 -7,0 11 6 O 0,0
08.04.2020 13:00:00 13,1 -7,1 9 5 OSO -
08.04.2020 12:00:00 11,5 -8,5 8 4 OSO -
08.04.2020 11:00:00 9,9 -6,2 4 2 SO -
08.04.2020 10:00:00 4,8 -1,5 0 0 N -
08.04.2020 09:00:00 0,9 -0,7 4 2 E -
08.04.2020 08:00:00 -1,7 -3,3 4 2 E 0,0
08.04.2020 07:00:00 -1,9 -3,8 4 2 E -
08.04.2020 06:00:00 -1,6 -3,8 4 2 E -
08.04.2020 05:00:00 -1,4 -3,6 4 2 ENE -
08.04.2020 04:00:00 -0,9 -2,8 4 2 E -
08.04.2020 03:00:00 -0,4 -2,3 4 2 E -
08.04.2020 02:00:00 -0,1 -2,5 4 2 E 0,0
08.04.2020 01:00:00 0,6 -2,3 2 1 E -
08.04.2020 00:00:00 1,1 -2,5 4 2 E -
07.04.2020 23:00:00 2,3 -3,1 4 2 E -
07.04.2020 22:00:00 3,9 -3,9 4 2 E -
07.04.2020 21:00:00 6,3 -7,5 2 1 NE -
07.04.2020 20:00:00 10,3 -10,1 8 4 NNO 0,0
07.04.2020 19:00:00 13,2 -8,8 5 3 NE -
07.04.2020 18:00:00 14,3 -9,1 5 3 NNE -
07.04.2020 17:00:00 14,6 -9,6 9 5 ENE -
07.04.2020 16:00:00 14,7 -9,5 11 6 E -
07.04.2020 15:00:00 14,3 -5,6 15 8 OSO -
07.04.2020 14:00:00 14,0 -7,5 11 6 OSO 0,0
07.04.2020 13:00:00 12,9 -7,9 11 6 O -
07.04.2020 12:00:00 12,0 -6,6 9 5 O -
07.04.2020 11:00:00 9,7 -5,5 4 2 SO -
07.04.2020 10:00:00 4,5 -0,8 2 1 OSO -
07.04.2020 09:00:00 0,2 -1,1 2 1 SE -
07.04.2020 08:00:00 -2,0 -2,8 2 1 E 0,0
07.04.2020 07:00:00 -2,1 -2,9 2 1 E -
07.04.2020 06:00:00 -1,7 -2,4 2 1 E -
07.04.2020 05:00:00 -1,3 -1,9 4 2 E -
07.04.2020 04:00:00 -0,9 -1,5 2 1 E -
07.04.2020 03:00:00 -0,5 -1,2 2 1 E -
07.04.2020 02:00:00 -0,3 -1,3 2 1 ENE 0,0
07.04.2020 01:00:00 0,1 -1,1 2 1 E -
07.04.2020 00:00:00 0,8 -1,0 2 1 E -
06.04.2020 23:00:00 1,7 -0,7 2 1 E -
06.04.2020 22:00:00 2,9 -0,8 4 2 E -
06.04.2020 21:00:00 4,9 -1,0 4 2 O -
06.04.2020 20:00:00 7,7 -1,6 8 4 SSO 0,0
06.04.2020 19:00:00 10,3 -4,3 9 5 OSO -
06.04.2020 18:00:00 11,8 -4,9 11 6 OSO -
06.04.2020 17:00:00 12,4 -5,7 15 8 OSO -
06.04.2020 16:00:00 13,0 -4,7 9 5 OSO -
06.04.2020 15:00:00 12,2 -5,4 8 4 O -
06.04.2020 14:00:00 11,5 -6,1 13 7 OSO 0,0
06.04.2020 13:00:00 10,7 -6,3 15 8 OSO -
06.04.2020 12:00:00 9,6 -6,4 9 5 OSO -
06.04.2020 11:00:00 8,1 -2,7 4 2 ESE -
06.04.2020 10:00:00 3,7 1,4 2 1 OSO -
06.04.2020 09:00:00 -0,3 -1,3 4 2 ESE -
06.04.2020 08:00:00 -2,3 -3,0 4 2 E 0,0
06.04.2020 07:00:00 -2,4 -3,2 4 2 E -
06.04.2020 06:00:00 -2,1 -2,9 4 2 E -
06.04.2020 05:00:00 -2,0 -3,1 2 1 E -
06.04.2020 04:00:00 -1,7 -3,0 4 2 E -
06.04.2020 03:00:00 -1,3 -2,8 4 2 ENE -
06.04.2020 02:00:00 -1,0 -2,5 4 2 E 0,0
06.04.2020 01:00:00 -0,6 -1,8 4 2 E -
06.04.2020 00:00:00 0,1 -1,1 4 2 E -
05.04.2020 23:00:00 0,9 -0,9 4 2 ENE -
05.04.2020 22:00:00 2,2 -0,6 2 1 E -
05.04.2020 21:00:00 4,0 -0,1 4 2 NE -
05.04.2020 20:00:00 7,1 0,2 8 4 SO 0,0
05.04.2020 19:00:00 9,0 -1,0 13 7 OSO -
05.04.2020 18:00:00 10,8 -1,7 11 6 O -
05.04.2020 17:00:00 11,5 -1,1 13 7 O -
05.04.2020 16:00:00 11,8 -2,2 15 8 ONO -
05.04.2020 15:00:00 11,7 -1,6 11 6 O -
05.04.2020 14:00:00 11,1 -2,1 11 6 O 0,0
05.04.2020 13:00:00 9,8 -1,4 11 6 NO -
05.04.2020 12:00:00 8,6 -1,1 11 6 OSO -
05.04.2020 11:00:00 7,1 2,3 4 2 OSO -
05.04.2020 10:00:00 2,8 1,1 2 1 SO -
05.04.2020 09:00:00 -0,6 -0,6 2 1 SE -
05.04.2020 08:00:00 -2,3 -2,6 2 1 ENE 0,0
05.04.2020 07:00:00 -2,2 -2,5 2 1 E -
05.04.2020 06:00:00 -1,9 -2,2 2 1 E -
05.04.2020 05:00:00 -1,5 -1,6 2 1 E -
05.04.2020 04:00:00 -1,6 -1,9 2 1 E -
05.04.2020 03:00:00 -1,2 -1,6 0 0 N -
05.04.2020 02:00:00 -0,7 -1,3 2 1 E 0,0
05.04.2020 01:00:00 -0,2 -1,1 4 2 E -
05.04.2020 00:00:00 0,4 -0,8 4 2 E -
04.04.2020 23:00:00 1,2 -0,6 2 1 E -
04.04.2020 22:00:00 2,3 -0,5 2 1 E -
04.04.2020 21:00:00 4,0 -0,3 2 1 E -
04.04.2020 20:00:00 6,9 0,5 5 3 SSO 0,0
04.04.2020 19:00:00 9,1 -1,2 13 7 OSO -
04.04.2020 18:00:00 11,4 -3,3 15 8 OSO -
04.04.2020 17:00:00 12,9 -4,8 15 8 OSO -
04.04.2020 16:00:00 13,2 -6,5 11 6 O -
04.04.2020 15:00:00 12,8 -6,9 9 5 O -
04.04.2020 14:00:00 12,0 -6,6 11 6 O 0,0
04.04.2020 13:00:00 11,0 -6,0 9 5 OSO -
04.04.2020 12:00:00 9,7 -5,9 4 2 SE -
04.04.2020 11:00:00 7,4 1,2 2 1 SO -
04.04.2020 10:00:00 2,3 1,9 0 0 N -
04.04.2020 09:00:00 -1,5 -1,5 0 0 N -
04.04.2020 08:00:00 -2,9 -3,0 4 2 E 0,0
04.04.2020 07:00:00 -3,0 -3,3 2 1 E -
04.04.2020 06:00:00 -2,8 -3,1 2 1 E -
04.04.2020 05:00:00 -2,6 -3,0 2 1 E -
04.04.2020 04:00:00 -2,3 -2,7 2 1 ENE -
04.04.2020 03:00:00 -1,9 -2,3 2 1 E -
04.04.2020 02:00:00 -1,7 -2,4 2 1 E 0,0
04.04.2020 01:00:00 -1,3 -2,3 0 0 N -
04.04.2020 00:00:00 -0,8 -2,1 2 1 E -
03.04.2020 23:00:00 -0,2 -2,0 4 2 ENE -
03.04.2020 22:00:00 1,0 -1,8 2 1 E -
03.04.2020 21:00:00 2,9 -1,0 2 1 E -
03.04.2020 20:00:00 5,7 -0,2 8 4 SO 0,0
03.04.2020 19:00:00 7,9 -2,6 9 5 SO -

tt = Temperatura
td = dewpoint
ff = velocità del vento
dd = direzione del vento
rr = precipitazioni

Stazioni seguenti

WeatherPro
AMSI
MeteoEarth